Location: Luxembourg
(49.6117°N, 6.1300°E)
Time: 01:09:39
(UTC+01:00)

N. Korean satellite - Pass Details

Date: 27 January 2019
Orbit: 456 x 510 km, 97.2° (Epoch: 21 February)

Event Time Altitude Azimuth Distance (km) Brightness Sun altitude
Rises 18:18:41 0° 182° (S) 2,595 10.5 -9.3°
Reaches altitude 10° 18:20:50 10° 189° (S) 1,721 9.7 -9.6°
Maximum altitude 18:24:23 43° 262° (W) 729 8.1 -10.2°
Drops below altitude 10° 18:27:59 10° 335° (NNW) 1,743 9.5 -10.7°
Sets 18:30:11 0° 342° (NNW) 2,634 10.3 -11.1°
